Location: Newark
(11.2914°S, 14.4718°E)
Time: 00:33:18
(UTC+00:00)

Vanguard 2 - Pass Details

Date: 25 September 2019
Orbit: 554 x 2937 km, 32.9° (Epoch: 22 October)

Event Time Altitude Azimuth Distance (km) Brightness Sun altitude
Rises 17:34:29 0° 228° (SW) 4,597 12.4 -9.8°
Reaches altitude 10° 17:37:20 10° 221° (SW) 3,904 11.8 -10.5°
Maximum altitude 17:47:52 46° 150° (SSE) 2,845 10.2 -13.1°
Enters shadow 17:59:34 19° 88° (E) 4,794 10.9 -15.9°
